sat.trackr.live / text

‹ back to catalog

2026-052J

NORAD 68206 · 2026-052J

PAYLOAD ACTIVE UNKNOWN

§ Identity

Operator
Country
PRC
Launch date
2026-03-16
Launch site
JSC
Launch vehicle
Mass (kg)
RCS (m²)

External: N2YO · Heavens-Above · Gunter

§ Orbital elements

Epoch: 2026-05-25T03:07:39.506304Z

Period
97.47 min
Inclination
97.3343°
Eccentricity
0.0508032
Mean motion
14.77337148 rev/d
Perigee alt
281.3 km
Apogee alt
994.2 km
Semi-major
7,015.9 km
B*
1.7195e-3
RAAN
215.2119°
Arg perigee
144.5871°
Mean anomaly
219.0223°
Rev number
1,029

§ Raw data

2026-052J1 68206U 26052J   26145.13031836  .00129702  42301-5  17195-2 0  99912 68206  97.3343 215.2119 0508032 144.5871 219.0223 14.77337148 10298

JSON: /api/v1/satellites/68206 · /tle

For live sub-satellite position, see the globe view (requires WebGL).

§ Visibility from observer

Set your observer location to see the next 7 days of passes ≥ 10°. The values pass through the URL so the page stays shareable.

No JS? Fill the form by hand. The geolocation button needs JavaScript.